Location: Palomar Mountain Lodge
(33.3110°N, 116.8495°W)
Time: 11:45:02
(UTC-08:00)

H-2A R/B - Pass Details

Date: 19 May 2017
Orbit: 505 x 544 km, 97.3° (Epoch: 18 November)

Event Time Altitude Azimuth Distance (km) Brightness Sun altitude
Rises 20:26:14 0° 182° (S) 2,617 6.0 -8.7°
Reaches altitude 10° 20:28:25 10° 189° (S) 1,728 5.1 -9.1°
Maximum altitude 20:31:57 41° 261° (W) 744 3.9 -9.7°
Drops below altitude 10° 20:35:28 10° 333° (NNW) 1,724 6.4 -10.3°
Sets 20:37:39 0° 341° (NNW) 2,609 7.2 -10.7°
